カタログに戻る

NOAA 16 DEB

運用中SSO
NORAD 41412·DEBRIS·🇺🇸 United States

打ち上げ Sep 21, 2000 から Vandenberg Space Force Base

Loading…

次のパス (今後24時間)

TLE

最新Source: Space-Track

元期: Sep 14, 2026, 12:31 UTC

1 41412U 00055KR  26257.52210653  .00002831  00000-0  11437-2 0  9990
2 41412  98.6165 278.1718 0024694 188.9568 171.1176 14.28490029545011

AllMySatでNOAA 16 DEBをリアルタイム追跡

Download on the App Store